CW4541 Weather Reports


time (UTC)temp
F
wind
direction
speed
knots
gust
knots
rain 1hr
in
rain 24hr
in
rain mn
in
humidity
%
barometer
mb
20260506050606 44 0 0.9 5.2 0.00 0.00 0.00 39 1016.9
20260506050111 44 0 0.9 5.2 0.00 0.00 0.00 38 1016.8
20260506040606 40 0 0.0 0.0 0.00 0.00 0.00 15 1016.4
20260506030606 45 0 0.0 0.0 0.00 0.00 0.00 8 1015.3
20260506030111 45 0 0.0 0.0 0.00 0.00 0.00 8 1015.2
20260506010606 57 0 3.5 7.8 0.00 0.00 0.00 1 1013.1
20260506010112 57 0 3.5 7.8 0.00 0.00 0.00 1 1013.0
20260506000606 59 0 8.7 14.8 0.00 0.00 0.00 3 1013.0
20260506000110 59 0 7.8 14.8 0.00 0.00 0.00 4 1012.8
20260505230606 62 0 1.7 8.7 0.00 0.00 0.00 4 1012.9
20260505230111 62 0 1.7 8.7 0.00 0.00 0.00 4 1012.8
20260505220606 61 0 1.7 7.0 0.00 0.00 0.00 7 1013.6
20260505220111 60 0 2.6 7.0 0.00 0.00 0.00 7 1013.7
20260505210606 63 0 1.7 10.4 0.00 0.00 0.00 7 1014.4
20260505200606 61 0 2.6 13.9 0.00 0.00 0.00 8 1014.9
20260505200111 62 0 4.3 11.3 0.00 0.00 0.00 7 1014.8
20260505190606 60 0 2.6 8.7 0.00 0.00 0.00 8 1015.6
20260505180606 59 0 2.6 12.2 0.00 0.01 0.00 10 1016.0
20260505180111 59 0 0.9 6.1 0.00 0.01 0.00 11 1016.0
20260505170606 57 0 2.6 7.0 0.00 0.01 0.00 13 1016.2
20260505160605 54 0 1.7 7.0 0.00 0.01 0.00 18 1016.6
20260505160111 53 0 0.9 7.0 0.00 0.01 0.00 18 1016.7
20260505150606 50 0 0.9 7.0 0.00 0.01 0.00 21 1016.5
20260505150111 50 0 1.7 7.0 0.00 0.01 0.00 23 1016.5
20260505140605 43 0 0.9 5.2 0.00 0.01 0.00 30 1017.4
20260505130110 36 0 0.0 0.9 0.00 0.01 0.00 37 1017.8
20260505120605 35 0 0.9 4.3 0.00 0.01 0.00 38 1017.7
20260505120111 35 0 0.0 0.9 0.00 0.01 0.00 39 1017.6
20260505110605 37 0 0.9 2.6 0.00 0.01 0.00 34 1017.4
20260505100606 39 0 0.0 4.3 0.00 0.01 0.00 32 1017.2
20260505100111 39 0 0.9 4.3 0.00 0.01 0.00 33 1017.2
20260505090605 38 0 0.0 2.6 0.00 0.02 0.00 42 1016.9
20260505080605 40 0 0.0 0.0 0.00 0.02 0.00 38 1016.7
20260505080111 41 0 0.0 0.0 0.00 0.02 0.00 38 1016.7
20260505070606 44 0 0.0 0.0 0.00 0.06 0.00 33 1016.7
20260505070110 44 0 0.0 0.0 0.00 0.06 0.00 33 1016.8
20260505060606 44 0 0.0 1.7 0.00 0.06 0.00 34 1016.8